User: anonymous   Login
Location: Great Falls
(47.5000°N, 111.3000°W)
Time: 02:50:19
(UTC-06:00)
Language:

ISS - Orbit

View from above orbital plane
View from above orbital plane
View from above satellite
View from above satellite

Ground track
Ground track

The orbit data is extracted from the following two-line orbital elements,

1 25544U 98067A   18232.63845482  .00016717  00000-0  10270-3 0  9036
2 25544  51.6384  57.5090 0005634  81.9078 278.2713 15.53866302  8531
Epoch (UTC): 20 August 2018 15:19:22
Eccentricity: 0.0005634
inclination: 51.6384°
perigee height: 401 km
apogee height: 409 km
right ascension of ascending node: 57.5090°
argument of perigee: 81.9078°
revolutions per day: 15.53866302
mean anomaly at epoch: 278.2713°
orbit number at epoch: 853

The dashed part of the orbit path shows where the satellite is in the earth's shadow,  

DLR